Regional Weather Roundup
Issued by NWS

Home | Current Version | Previous Version | Graphics & Text | Print | Product List | Glossary On
Versions: 1 2 3 4 5 6 7 8 9 10 11 12 13 14 15 16 17 18 19 20 21 22 23 24 25 26 27 28 29 30 31 32 33 34 35 36 37 38 39 40 41 42 43 44 45 46 47 48 49 50
000
ASUS45 KTFX 262304
RWRMT
MONTANA HOURLY WEATHER ROUNDUP
NATIONAL WEATHER SERVICE GREAT FALLS MT
504 PM MDT THU MAR 26 2015

NOTE: "FAIR" INDICATES FEW OR NO CLOUDS BELOW 12000 FEET WITH NO
SIGNIFICANT WEATHER AND/OR OBSTRUCTIONS TO VISIBILITY.

* THESE STATIONS ARE NOT UNDER NWS QUALITY CONTROL. THEY DO NOT
   REPORT WEATHER SUCH AS PRECIPITATION OR FOG.

MTZ001>007-043-270000-
WEST OF THE DIVIDE
CITY           SKY/WX    TMP DP  RH WIND       PRES   REMARKS
KALISPELL      CLOUDY    46  43  89 CALM      30.26F
MISSOULA       CLOUDY    55  39  55 CALM      30.30F
BUTTE          PTCLDY    54  34  47 NW17      30.27F
MULLAN PASS    PTCLDY    43  39  86 VRB6      30.31F
* ESSEX        N/A       48  40  74 N1         N/A
* LINCOLN      N/A       50  37  61 W7G20      N/A
* LOOKOUT PASS N/A       51  41  69 SE8        N/A
* POLSON       N/A       54  41  62 S2         N/A
* RONAN APT    PTCLDY    55  41  59 SE8        N/A
* SEELEY LAKE  N/A       50  39  66 N3G8       N/A
* THOMP F APT  PTCLDY    49  26  41 S5G12      N/A
$$

MTZ008-052>055-270000-
SOUTHWEST MONTANA
CITY           SKY/WX    TMP DP  RH WIND       PRES   REMARKS
BOZEMAN        CLOUDY    59  34  39 W14       30.21S
DILLON         MOCLDY    61  32  34 NE5       30.25S
* W YELLOWSTON MOCLDY    47  33  58 SW6G13     N/A
* THREE FORKS  PTCLDY    61  36  39 W14G21     N/A
* TWIN BRIDGES MOCLDY    59  30  33 W11        N/A
* BOULDER HILL N/A       53  31  43 W2G18      N/A
* HOMESTAKE PS N/A       48  33  56 NW16G30    N/A
* MONIDA PASS  N/A       49  28  44 SE12G17    N/A
* RAYNOLDS PAS N/A       42  17  36 S13G18     N/A
* WHITEHALL    N/A       61  35  38 W15G25     N/A
* WISE RIVER   N/A       53  35  51 W15G32     N/A
$$

MTZ009>010-012-014-046-048-049-054-270000-
EAST SLOPES AND CENTRAL MONTANA
CITY           SKY/WX    TMP DP  RH WIND       PRES   REMARKS
CUT BANK       MOCLDY    61  36  39 W26G32    30.06R
GREAT FALLS    MOCLDY    66  36  33 W24G31    30.07R
HELENA         MOCLDY    59  37  44 W10G21    30.20S
* DEARBORN     N/A       61  38  43 S26G32     N/A
* EAST GLACIER N/A       49  36  61 W34G47     N/A
* MONARCH      N/A       55  28  35 W28G37     N/A
* PENDROY      N/A       60  30  32 NW20G29    N/A
* ROGERS PASS  N/A       44  36  74 SE13G29    N/A
$$

MTZ011-013-016-021-035-040-045-047-050-051-270000-
NORTH CENTRAL MONTANA
CITY           SKY/WX    TMP DP  RH WIND       PRES   REMARKS
HAVRE          CLOUDY    66  36  33 NW20G25   29.98F
LEWISTOWN      CLOUDY    61  36  39 NW22G30   30.06S
* N BAR RANCH  CLOUDY    57  34  42 NW25      30.07F
* MALTA APT    CLOUDY    59  32  36 N/A        N/A
* CHESTER      N/A       64  33  31 NW19G30    N/A
* DENTON       N/A       62  33  34 W26G32     N/A
* GEYSER       N/A       61  32  34 W29G39     N/A
* JUDITH GAP   N/A       59  32  36 W16        N/A
* LOMA         N/A       67  36  32 W23G29     N/A
$$

MTZ017>020-022>027-061-062-270000-
NORTHEAST MONTANA
CITY           SKY/WX    TMP DP  RH WIND       PRES   REMARKS
GLASGOW        CLOUDY    50  32  50 E14       30.06F
GLENDIVE       CLOUDY    48  28  46 E6        30.12S
JORDAN         MOCLDY    61  32  34 VRB3      30.04S
SIDNEY         PTCLDY    45  34  65 E6        30.16R
WOLF POINT     CLOUDY    48  36  63 E10       30.11S
* BEAVER HILL  N/A       45  32  60 E9G14      N/A
* CIRCLE       N/A       53  28  38 N/A        N/A
* LINDSAY DVD  N/A       49  29  46 SE1G11     N/A
* NAVAJO       N/A       37  31  79 SE7        N/A   WCI  32
* SACO         N/A       53  29  40 E11        N/A
$$

MTZ028>042-056>058-270000-
SOUTHCENTRAL AND SOUTHEAST MONTANA
CITY           SKY/WX    TMP DP  RH WIND       PRES   REMARKS
BAKER          CLOUDY    48  28  46 E5        30.10F
BILLINGS       CLOUDY    63  34  34 NW17      30.08R
LIVINGSTON     CLOUDY    61  34  36 W29G35    30.16S
MILES CITY     CLOUDY    57  30  36 N10       30.05F
* LAUREL APT   CLOUDY    63  34  34 W15G24     N/A
* ROUNDUP APT  CLOUDY    61  34  36 W11G17     N/A
* ALZADA       N/A       49  28  44 W8         N/A
* HYSHAM       N/A       58  29  33 NW2G7      N/A
* LAME DEER    N/A       52  32  47 NW6G12     N/A
* REED POINT   N/A       63  33  33 W28G39     N/A
* ROSCOE HILL  N/A       61  19  20 W9G19      N/A
$$

REGIONAL REPORTS...DAKOTAS
CITY           SKY/WX    TMP DP  RH WIND       PRES   REMARKS
WILLISTON      MOCLDY    45  25  45 CALM      30.16S
DICKINSON      CLOUDY    37  28  70 SE6       30.15S WCI  32
CROSBY         CLEAR     41  25  53 SE6       30.18F
WATFORD CITY   MOCLDY    41  27  58 SE7       30.15S
BISMARCK       CLOUDY    37  19  48 NE5       30.23R WCI  33
GRAND FORKS    MOCLDY    30  16  56 N18G25    30.28S WCI  18
FARGO          CLEAR     34  10  37 N18G29    30.25R WCI  23
BUFFALO SD     CLOUDY    45  30  56 E12       30.05F
RAPID CITY     CLOUDY    46  28  50 NE14      30.12R
$$

REGIONAL REPORTS...WYOMING/IDAHO/WASHINGTON
CITY           SKY/WX    TMP DP  RH WIND       PRES   REMARKS
GILLETTE       CLOUDY    54  34  47 N14       30.09F
SHERIDAN       CLOUDY    57  36  46 N13       30.08F
CODY           MOCLDY    59  28  31 W15G25    30.14S
YELLOWSTONE LA CLOUDY    41  28  60 W8        30.35S
SALMON         CLOUDY   N/A N/A N/A N7        30.27F
MULLAN PASS    PTCLDY    43  39  86 VRB6      30.31S
SAND POINT     PTCLDY    55  46  72 E6        30.28S
SPOKANE        CLOUDY    61  45  56 SW3       30.26F

$$



USA.gov is the U.S. government's official web portal to all federal, state and local government web resources and services.